This demonstration page uses our WeatherBlox Daily Observations layout. Learn more.

Left ArrowRight Arrow

44.8408, -93.29828

Hourly Observations for September 29, 2022

Temp ( °F °C ) Dew Point ( °F °C ) Humidity (%) Winds ( mph kmh ) Pressure ( in mb ) Visibility ( mi km ) Precip ( " mm )
12:53 am 00:53 Partly Cloudy 49 9.4 34 1.1 56 56 S 8 13 30.43 1031 10 16 0.00 0.00
1:53 am 01:53 Clear 46 7.8 34 1.1 63 63 SSE 8 13 30.44 1031 10 16 0.00 0.00
2:53 am 02:53 Clear 47 8.3 33 0.6 58 58 SSE 9 15 30.43 1031 10 16 0.00 0.00
3:53 am 03:53 Clear 46 7.8 32 0 58 58 SSE 8 13 30.42 1030 10 16 0.00 0.00
4:53 am 04:53 Mostly Clear 46 7.8 32 0 58 58 S 9 15 30.41 1030 10 16 0.00 0.00
5:53 am 05:53 Mostly Clear 46 7.8 32 0 58 58 S 12 19 30.41 1030 10 16 0.00 0.00
6:53 am 06:53 Partly Cloudy 46 7.8 32 0 58 58 S 9 15 30.41 1030 10 16 0.00 0.00
7:53 am 07:53 Mostly Sunny 45 7.2 33 0.6 63 63 S 10 17 30.42 1030 10 16 0.00 0.00
8:53 am 08:53 Mostly Sunny 48 8.9 34 1.1 58 58 S 9 15 30.41 1030 10 16 0.00 0.00
9:53 am 09:53 Mostly Sunny 53 11.7 35 1.7 50 50 S 10 17 30.40 1030 10 16 0.00 0.00
10:53 am 10:53 Mostly Sunny 57 13.9 37 2.8 47 47 S 14 22 30.39 1029 10 16 0.00 0.00
11:53 am 11:53 Mostly Sunny 61 16.1 37 2.8 41 41 S 17 28 30.36 1028 10 16 0.00 0.00
12:53 pm 12:53 Mostly Sunny 65 18.3 36 2.2 34 34 S 15 24 30.33 1027 10 16 0.00 0.00
1:53 pm 13:53 Mostly Sunny 67 19.4 34 1.1 29 29 S 15 24 30.31 1026 10 16 0.00 0.00
2:53 pm 14:53 Mostly Sunny 69 20.6 32 0 25 25 S 13 20 30.28 1026 10 16 0.00 0.00
3:53 pm 15:53 Mostly Sunny 70 21.1 31 -0.6 23 23 SSE 12 19 30.26 1025 10 16 0.00 0.00
4:53 pm 16:53 Mostly Sunny 70 21.1 30 -1.1 23 23 S 15 24 30.25 1025 10 16 0.00 0.00
5:53 pm 17:53 Partly Cloudy 69 20.6 34 1.1 27 27 S 13 20 30.23 1024 10 16 0.00 0.00
6:53 pm 18:53 Mostly Sunny 65 18.3 35 1.7 33 33 SSE 10 17 30.21 1023 10 16 0.00 0.00
7:53 pm 19:53 Mostly Clear 62 16.7 36 2.2 38 38 SSE 9 15 30.21 1023 10 16 0.00 0.00
8:53 pm 20:53 Mostly Clear 61 16.1 36 2.2 39 39 SSE 12 19 30.22 1023 10 16 0.00 0.00
9:53 pm 21:53 Mostly Clear 59 15 36 2.2 42 42 SSE 9 15 30.22 1024 10 16 0.00 0.00
10:53 pm 22:53 Partly Cloudy 57 13.9 37 2.8 47 47 SSE 10 17 30.23 1024 10 16 0.00 0.00
11:53 pm 23:53 Partly Cloudy 57 13.9 38 3.3 49 49 SSE 12 19 30.21 1023 10 16 0.00 0.00

Powered by AerisWeather